Weather in Rozivka

Ukraine / Zaporizhia Region     46°30′24″N   34°57′40″E
temp.,
°C
wind,
m/s
gust,
m/s
humid.,
%
clouds,
%
prec.,
mm/h
press.,
hPa
HPBL,
m
2 march, tue
tue223:000n358459 0.0 1030110
02:000nnw358330 0.0 1030105
05:00−1nw33860 0.0 103068
08:00+1wnw35790 0.0 1030242
11:00+5w56560 0.0 10291067
14:00+6w79539 0.0 10261077
17:00+4wsw7116495 0.0 1024762
20:00+2wsw8147580 0.0 1023557
3 march, wed
wed323:00+3wsw8148244 0.0 1021510
02:00+3nw6107872 0.0 1021522
05:00+3nw7128298 0.0 1021746
08:00+2nnw7107958 0.0 1024757
11:00+6nnw68570 0.0 10251000
14:00+7nnw68460 0.0 10261356
17:00+6nw47480 0.0 1026457
20:00+4nw23590 0.0 102738
4 march, thu
thu423:00+2w22680 0.0 102722
02:00+1wsw33730 0.0 102634
05:00+1wsw34760 0.0 102557
08:00+4sw59730 0.0 1024383
11:00+8sw79540 0.0 10221074
14:00+10sw710490 0.0 10201221
17:00+8wsw610630 0.0 1018758
20:00+5sw7137120 0.0 1017521
5 march, fri
fri523:00+4sw7147933 0.0 1016506
02:00+3sw6148317 0.0 1016484
05:00+3sw513900 0.0 1015402
08:00+5sw611834 0.0 1015483
11:00+9sw686771 0.0 1014654
14:00+12ssw795674 0.0 1013991
17:00+11ssw5106053 0.0 1012500
20:00+7sw6128044 0.0 1012393
6 march, sat
sat623:00+6sw412921 0.0 1012417
02:00+5wsw389637 0.0 1012254
05:00+4wnw3596100 0.0 1012142
08:00+5n5887100 0.0 1014379
11:00+3n71092100 0.1 1015387
14:00+3n61081100 0.8 1016748
17:00+4n7948100 0.0 10181238
20:00+2nnw71055100 0.0 1021939